| time (UTC) | temp F | wind direction | speed MPH | gust MPH | rain 1hr in | rain 24hr in | rain mn in | humidity % | barometer mb |
| 20260906161557 | 60 | 113 | 0.0 | 0.0 | 0.00 | 0.12 | 0.07 | 84 | 1015.4 |
| 20260906160006 | 61 | 98 | 0.0 | 0.0 | 0.00 | 0.12 | 0.07 | 83 | 1015.5 |
| 20260906154607 | 62 | 344 | 0.0 | 0.0 | 0.00 | 0.12 | 0.07 | 81 | 1015.4 |
| 20260906153048 | 60 | 299 | 0.0 | 0.0 | 0.00 | 0.12 | 0.07 | 87 | 1015.2 |
| 20260906151558 | 59 | 71 | 0.0 | 0.0 | 0.00 | 0.12 | 0.07 | 89 | 1015.3 |
| 20260906150048 | 58 | 281 | 0.0 | 0.0 | 0.00 | 0.12 | 0.07 | 92 | 1015.2 |
| 20260906144504 | 58 | 39 | 0.0 | 0.0 | 0.00 | 0.12 | 0.07 | 91 | 1015.3 |
| 20260906143050 | 57 | 113 | 0.0 | 0.0 | 0.00 | 0.12 | 0.07 | 94 | 1015.2 |
| 20260906141542 | 57 | 206 | 0.0 | 0.0 | 0.00 | 0.12 | 0.07 | 95 | 1015.3 |
| 20260906140021 | 56 | 206 | 0.0 | 0.0 | 0.00 | 0.12 | 0.07 | 95 | 1015.3 |
| 20260906134554 | 56 | 216 | 0.0 | 0.0 | 0.00 | 0.12 | 0.07 | 94 | 1015.3 |
| 20260906133054 | 57 | 62 | 0.0 | 0.0 | 0.00 | 0.12 | 0.07 | 96 | 1015.2 |
| 20260906131550 | 56 | 127 | 0.0 | 0.0 | 0.01 | 0.12 | 0.07 | 97 | 1015.2 |
| 20260906130053 | 55 | 126 | 0.0 | 0.0 | 0.03 | 0.12 | 0.07 | 97 | 1015.2 |
| 20260906124537 | 54 | 78 | 0.0 | 0.0 | 0.04 | 0.12 | 0.07 | 97 | 1015.3 |
| 20260906123131 | 54 | 81 | 0.0 | 0.0 | 0.04 | 0.12 | 0.07 | 97 | 1015.3 |
| 20260906121604 | 54 | 81 | 0.0 | 0.0 | 0.03 | 0.11 | 0.06 | 97 | 1015.1 |
| 20260906120056 | 54 | 33 | 0.0 | 0.0 | 0.01 | 0.09 | 0.04 | 97 | 1014.8 |
| 20260906114549 | 55 | 47 | 0.0 | 0.0 | 0.00 | 0.08 | 0.03 | 97 | 1014.7 |
| 20260906113046 | 55 | 47 | 0.0 | 0.0 | 0.01 | 0.08 | 0.03 | 97 | 1014.4 |
| 20260906111546 | 55 | 47 | 0.0 | 0.0 | 0.01 | 0.08 | 0.03 | 97 | 1014.4 |
| 20260906110009 | 55 | 47 | 0.0 | 0.0 | 0.01 | 0.08 | 0.03 | 97 | 1014.1 |
| 20260906104635 | 55 | 47 | 0.0 | 0.0 | 0.02 | 0.08 | 0.03 | 97 | 1014.0 |
| 20260906103050 | 55 | 31 | 0.0 | 0.0 | 0.01 | 0.07 | 0.02 | 97 | 1013.8 |
| 20260906101527 | 55 | 31 | 0.0 | 0.0 | 0.01 | 0.07 | 0.02 | 97 | 1013.5 |
| 20260906100019 | 55 | 31 | 0.0 | 0.0 | 0.01 | 0.07 | 0.02 | 97 | 1013.4 |
| 20260906094617 | 55 | 31 | 0.0 | 0.0 | 0.00 | 0.06 | 0.01 | 97 | 1013.3 |
| 20260906093039 | 55 | 31 | 0.0 | 0.0 | 0.00 | 0.06 | 0.01 | 97 | 1013.2 |
| 20260906091631 | 55 | 31 | 0.0 | 0.0 | 0.00 | 0.06 | 0.01 | 97 | 1013.1 |
| 20260906090100 | 55 | 31 | 0.0 | 0.0 | 0.00 | 0.06 | 0.01 | 97 | 1013.0 |
| 20260906084544 | 55 | 31 | 0.0 | 0.0 | 0.00 | 0.06 | 0.01 | 98 | 1012.9 |
| 20260906083140 | 55 | 31 | 0.0 | 0.0 | 0.01 | 0.06 | 0.01 | 97 | 1012.9 |
| 20260906081556 | 55 | 31 | 0.0 | 0.0 | 0.01 | 0.06 | 0.01 | 97 | 1012.8 |
| 20260906080043 | 55 | 31 | 0.0 | 0.0 | 0.01 | 0.06 | 0.01 | 97 | 1012.8 |
| 20260906074534 | 55 | 31 | 0.0 | 0.0 | 0.01 | 0.06 | 0.01 | 97 | 1012.9 |
| 20260906073107 | 55 | 31 | 0.0 | 0.0 | 0.00 | 0.05 | 0.00 | 97 | 1013.0 |
| 20260906071549 | 55 | 31 | 0.0 | 0.0 | 0.00 | 0.05 | 0.00 | 97 | 1012.9 |
| 20260906070042 | 55 | 31 | 0.0 | 0.0 | 0.00 | 0.05 | 0.00 | 97 | 1012.7 |
| 20260906064526 | 55 | 31 | 0.0 | 0.0 | 0.00 | 0.05 | 0.00 | 97 | 1012.8 |
| 20260906063058 | 55 | 31 | 0.0 | 0.0 | 0.00 | 0.05 | 0.00 | 97 | 1013.0 |
| 20260906061552 | 55 | 31 | 0.0 | 0.0 | 0.00 | 0.05 | 0.00 | 97 | 1013.0 |
| 20260906060036 | 56 | 31 | 0.0 | 0.0 | 0.00 | 0.05 | 0.00 | 97 | 1013.1 |
| 20260906054604 | 56 | 31 | 0.0 | 0.0 | 0.00 | 0.05 | 0.00 | 96 | 1013.1 |
| 20260906053047 | 56 | 31 | 0.0 | 0.0 | 0.00 | 0.05 | 0.00 | 96 | 1013.1 |
| 20260906051527 | 56 | 31 | 0.0 | 0.0 | 0.00 | 0.05 | 0.00 | 97 | 1013.1 |
| 20260906050130 | 56 | 31 | 0.0 | 0.0 | 0.00 | 0.05 | 0.00 | 96 | 1013.1 |
| 20260906044544 | 56 | 31 | 0.0 | 0.0 | 0.03 | 0.05 | 0.00 | 96 | 1013.0 |
| 20260906043021 | 56 | 31 | 0.0 | 0.0 | 0.03 | 0.05 | 0.00 | 96 | 1013.1 |
| 20260906041506 | 57 | 33 | 0.0 | 0.0 | 0.04 | 0.05 | 0.00 | 96 | 1013.0 |
| 20260906040030 | 57 | 33 | 0.0 | 0.0 | 0.04 | 0.05 | 0.00 | 96 | 1012.9 |
| 20260906034542 | 57 | 31 | 0.0 | 0.0 | 0.01 | 0.02 | 0.02 | 96 | 1012.9 |
| 20260906033040 | 58 | 27 | 0.0 | 0.0 | 0.00 | 0.01 | 0.02 | 96 | 1012.6 |
| 20260906031549 | 58 | 107 | 0.0 | 0.0 | 0.00 | 0.01 | 0.01 | 96 | 1012.4 |
| 20260906030033 | 58 | 107 | 0.0 | 0.0 | 0.00 | 0.01 | 0.01 | 96 | 1012.3 |
| 20260906024535 | 57 | 107 | 0.0 | 0.0 | 0.00 | 0.01 | 0.01 | 96 | 1012.2 |
| 20260906023137 | 57 | 107 | 0.0 | 0.0 | 0.00 | 0.01 | 0.01 | 96 | 1012.3 |
| 20260906021604 | 57 | 107 | 0.0 | 0.0 | 0.00 | 0.01 | 0.01 | 96 | 1012.2 |
| 20260906020059 | 57 | 107 | 0.0 | 0.0 | 0.00 | 0.01 | 0.01 | 96 | 1012.2 |
| 20260906014552 | 57 | 107 | 0.0 | 0.0 | 0.00 | 0.01 | 0.01 | 95 | 1012.0 |
| 20260906013015 | 58 | 107 | 0.0 | 0.0 | 0.00 | 0.01 | 0.01 | 95 | 1011.9 |
| 20260906011559 | 58 | 107 | 0.0 | 0.0 | 0.00 | 0.01 | 0.01 | 95 | 1012.1 |
| 20260906010034 | 58 | 107 | 0.0 | 0.0 | 0.00 | 0.01 | 0.01 | 95 | 1012.1 |
| 20260906004508 | 59 | 107 | 0.0 | 0.0 | 0.00 | 0.01 | 0.01 | 95 | 1012.0 |
| 20260906003011 | 59 | 107 | 0.0 | 0.0 | 0.00 | 0.01 | 0.01 | 95 | 1011.8 |
| 20260906001619 | 60 | 107 | 0.0 | 0.0 | 0.00 | 0.01 | 0.01 | 95 | 1011.7 |
| 20260906000045 | 60 | 107 | 0.0 | 0.0 | 0.00 | 0.01 | 0.01 | 94 | 1011.6 |
| 20260905234532 | 61 | 107 | 0.0 | 0.0 | 0.00 | 0.01 | 0.01 | 94 | 1011.4 |
| 20260905233114 | 61 | 107 | 0.0 | 0.0 | 0.00 | 0.01 | 0.01 | 94 | 1011.3 |
| 20260905231555 | 62 | 107 | 0.0 | 0.0 | 0.00 | 0.01 | 0.01 | 93 | 1011.2 |
| 20260905230050 | 62 | 107 | 0.0 | 0.0 | 0.00 | 0.01 | 0.01 | 93 | 1011.0 |
| 20260905224600 | 63 | 107 | 0.0 | 0.0 | 0.00 | 0.01 | 0.01 | 93 | 1011.0 |
| 20260905223030 | 63 | 107 | 0.0 | 0.0 | 0.00 | 0.01 | 0.01 | 93 | 1010.9 |
| 20260905221539 | 63 | 107 | 0.0 | 0.0 | 0.00 | 0.01 | 0.01 | 93 | 1010.9 |
| 20260905220110 | 63 | 107 | 0.0 | 0.0 | 0.00 | 0.01 | 0.01 | 93 | 1010.8 |
| 20260905214539 | 63 | 107 | 0.0 | 0.0 | 0.00 | 0.01 | 0.01 | 92 | 1010.7 |
| 20260905213005 | 63 | 107 | 0.0 | 0.0 | 0.01 | 0.01 | 0.01 | 92 | 1010.5 |
| 20260905211550 | 63 | 107 | 0.0 | 0.0 | 0.01 | 0.01 | 0.01 | 91 | 1010.4 |
| 20260905210109 | 63 | 107 | 0.0 | 0.0 | 0.01 | 0.01 | 0.01 | 91 | 1010.3 |
| 20260905204548 | 64 | 107 | 0.0 | 0.0 | 0.01 | 0.01 | 0.01 | 86 | 1010.3 |
| 20260905203058 | 66 | 17 | 0.0 | 0.0 | 0.00 | 0.00 | 0.00 | 82 | 1010.2 |
| 20260905201540 | 64 | 304 | 0.0 | 0.0 | 0.00 | 0.00 | 0.00 | 85 | 1010.0 |
| 20260905200021 | 64 | 304 | 0.0 | 0.0 | 0.00 | 0.00 | 0.00 | 87 | 1010.0 |
| 20260905194612 | 65 | 304 | 0.0 | 0.0 | 0.00 | 0.00 | 0.00 | 84 | 1009.9 |
| 20260905193040 | 66 | 224 | 0.0 | 0.0 | 0.00 | 0.00 | 0.00 | 78 | 1010.0 |
| 20260905191513 | 67 | 223 | 0.0 | 0.0 | 0.00 | 0.00 | 0.00 | 77 | 1009.9 |
| 20260905190009 | 67 | 338 | 0.0 | 0.0 | 0.00 | 0.00 | 0.00 | 77 | 1009.8 |
| 20260905184536 | 67 | 338 | 0.0 | 0.0 | 0.00 | 0.00 | 0.00 | 75 | 1010.0 |
| 20260905183004 | 67 | 234 | 0.0 | 0.0 | 0.00 | 0.00 | 0.00 | 76 | 1009.9 |
| 20260905181543 | 67 | 234 | 0.0 | 0.0 | 0.00 | 0.00 | 0.00 | 74 | 1009.9 |
| 20260905180010 | 67 | 221 | 0.0 | 0.0 | 0.00 | 0.00 | 0.00 | 73 | 1009.9 |
| 20260905174601 | 67 | 185 | 0.0 | 0.0 | 0.00 | 0.00 | 0.00 | 75 | 1009.9 |
| 20260905173032 | 66 | 238 | 0.0 | 0.0 | 0.00 | 0.00 | 0.00 | 76 | 1009.9 |
| 20260905171607 | 66 | 215 | 0.0 | 0.0 | 0.00 | 0.00 | 0.00 | 75 | 1009.8 |
| 20260905170058 | 66 | 59 | 0.0 | 0.0 | 0.00 | 0.00 | 0.00 | 74 | 1009.8 |
| 20260905164525 | 66 | 138 | 0.0 | 0.0 | 0.00 | 0.00 | 0.00 | 75 | 1009.8 |
| 20260905163010 | 66 | 115 | 0.0 | 0.0 | 0.00 | 0.00 | 0.00 | 74 | 1009.9 |